sat.trackr.live / text

‹ back to catalog

STARLINK-34575

NORAD 64859 · 2025-152T

PAYLOAD ACTIVE UNKNOWN

§ Identity

Operator
Country
US
Launch date
2025-07-19
Launch site
AFWTR
Launch vehicle
Mass (kg)
RCS (m²)

Purposes: comms

External: N2YO · Heavens-Above · Gunter

§ Orbital elements

Epoch: 2026-05-25T02:56:21.819264Z

Period
95.64 min
Inclination
97.4510°
Eccentricity
0.0002222
Mean motion
15.05656287 rev/d
Perigee alt
548.0 km
Apogee alt
551.0 km
Semi-major
6,927.6 km
B*
1.8301e-4
RAAN
0.5478°
Arg perigee
89.4143°
Mean anomaly
270.7339°
Rev number
4,692

§ Raw data

STARLINK-345751 64859U 25152T   26145.12247476  .00002583  00000+0  18301-3 0  99912 64859  97.4510   0.5478 0002222  89.4143 270.7339 15.05656287 46928

JSON: /api/v1/satellites/64859 · /tle

For live sub-satellite position, see the globe view (requires WebGL).

§ Visibility from observer

Set your observer location to see the next 7 days of passes ≥ 10°. The values pass through the URL so the page stays shareable.

No JS? Fill the form by hand. The geolocation button needs JavaScript.